DG5TKE Weather Reports


time (UTC)temp
C
wind
direction
speed
KPH
gust
KPH
rain 1hr
cm
rain 24hr
cm
rain mn
cm
humidity
%
barometer
mb
20260903190003 16 220 3.2 4.8 0.00 0.25 0.25 88 1016.0
20260903185006 17 204 3.2 6.4 0.00 0.25 0.25 88 1016.0
20260903184006 16 192 3.2 8.0 0.00 0.25 0.25 89 1016.0
20260903183003 16 197 3.2 12.9 0.00 0.25 0.25 89 1016.0
20260903182006 16 196 3.2 9.7 0.00 0.25 0.25 89 1016.0
20260903181006 17 205 3.2 8.0 0.00 0.25 0.25 89 1015.9
20260903180003 17 227 1.6 6.4 0.00 0.25 0.25 89 1015.9
20260903175003 17 217 1.6 4.8 0.00 0.25 0.25 89 1015.9
20260903174003 17 207 1.6 9.7 0.00 0.25 0.25 89 1015.8
20260903173006 17 173 0.0 6.4 0.00 0.25 0.25 89 1015.6
20260903172003 17 205 1.6 3.2 0.00 0.25 0.25 88 1015.6
20260903171003 17 198 1.6 6.4 0.00 0.25 0.25 88 1015.6
20260903170006 17 184 0.0 8.0 0.00 0.25 0.25 88 1015.5
20260903165003 17 180 3.2 8.0 0.00 0.25 0.25 88 1015.6
20260903164006 17 165 3.2 12.9 0.00 0.25 0.25 87 1015.6
20260903163006 17 170 1.6 8.0 0.00 0.25 0.25 88 1015.6
20260903162222 17 132 1.6 4.8 0.00 0.25 0.25 88 1015.6
20260903161218 17 152 3.2 6.4 0.00 0.25 0.25 88 1015.5
20260903160003 17 188 4.8 12.9 0.00 0.25 0.25 88 1015.6
20260903155003 17 189 4.8 16.1 0.00 0.25 0.25 88 1015.8
20260903154003 17 193 4.8 11.3 0.00 0.25 0.25 89 1016.0
20260903153006 17 196 4.8 12.9 0.05 0.25 0.25 89 1015.9
20260903152006 17 184 3.2 9.7 0.08 0.25 0.25 89 1016.2
20260903151006 17 174 1.6 9.7 0.08 0.25 0.25 89 1016.1
20260903150007 17 184 3.2 11.3 0.08 0.25 0.25 88 1016.2
20260903145003 17 189 4.8 11.3 0.13 0.25 0.25 87 1016.1
20260903144003 17 200 6.4 16.1 0.15 0.25 0.25 86 1016.2
20260903143006 17 202 3.2 16.1 0.15 0.23 0.23 84 1016.4
20260903142221 17 207 3.2 12.9 0.15 0.18 0.18 83 1016.3
20260903141006 18 140 1.6 9.7 0.18 0.18 0.18 82 1016.2
20260903140003 18 136 1.6 4.8 0.18 0.18 0.18 80 1016.0
20260903135003 18 201 1.6 6.4 0.15 0.15 0.15 78 1016.2
20260903134003 19 211 1.6 9.7 0.13 0.13 0.13 76 1016.1
20260903133003 20 209 6.4 14.5 0.05 0.05 0.05 72 1016.1
20260903132007 20 209 8.0 17.7 0.03 0.03 0.03 67 1016.1
20260903131003 21 217 4.8 20.9 0.00 0.00 0.00 62 1016.0
20260903130007 21 217 9.7 24.1 0.00 0.00 0.00 61 1015.7
20260903125218 21 216 9.7 25.7 0.00 0.00 0.00 61 1015.4
20260903124004 21 211 8.0 19.3 0.00 0.00 0.00 61 1015.2
20260903123220 21 202 8.0 19.3 0.00 0.00 0.00 62 1015.2
20260903122220 21 211 8.0 29.0 0.00 0.00 0.00 58 1015.3
20260903121008 22 211 8.0 14.5 0.00 0.00 0.00 60 1015.2
20260903120218 22 204 9.7 25.7 0.00 0.00 0.00 60 1015.2
20260903115218 22 219 11.3 25.7 0.00 0.00 0.00 57 1015.3
20260903114220 22 222 16.1 37.0 0.00 0.00 0.00 58 1015.2
20260903113220 22 211 14.5 38.6 0.00 0.00 0.00 57 1015.3
20260903112006 22 220 14.5 41.8 0.00 0.00 0.00 55 1015.5
20260903111007 23 212 12.9 25.7 0.00 0.00 0.00 56 1015.5
20260903110003 23 220 12.9 29.0 0.00 0.00 0.00 56 1015.4
20260903105003 22 203 11.3 29.0 0.00 0.00 0.00 58 1015.6
20260903104003 22 188 8.0 27.4 0.00 0.00 0.00 62 1015.7
20260903103007 21 214 8.0 19.3 0.00 0.00 0.00 62 1015.9
20260903102003 21 204 8.0 19.3 0.00 0.00 0.00 61 1016.1
20260903101006 20 199 11.3 25.7 0.00 0.00 0.00 61 1016.3
20260903100217 20 197 8.0 25.7 0.00 0.00 0.00 61 1016.3
20260903095003 20 211 8.0 20.9 0.00 0.00 0.00 62 1016.4
20260903094221 20 213 8.0 20.9 0.00 0.00 0.00 62 1016.6
20260903093003 20 204 8.0 20.9 0.00 0.00 0.00 62 1016.7
20260903092006 19 208 8.0 16.1 0.00 0.00 0.00 63 1016.9
20260903091003 19 210 8.0 20.9 0.00 0.00 0.00 62 1017.1
20260903090006 19 200 8.0 20.9 0.00 0.00 0.00 64 1017.1
20260903085003 19 198 8.0 24.1 0.00 0.00 0.00 65 1017.1
20260903084004 18 201 8.0 12.9 0.00 0.00 0.00 65 1017.4
20260903083007 18 198 8.0 20.9 0.00 0.00 0.00 66 1017.3
20260903082003 18 210 6.4 20.9 0.00 0.00 0.00 69 1017.5
20260903081003 17 175 1.6 9.7 0.00 0.00 0.00 75 1017.4
20260903080003 17 149 3.2 9.7 0.00 0.00 0.00 77 1017.4
20260903075216 16 149 4.8 11.3 0.00 0.00 0.00 78 1017.3
20260903074003 16 169 3.2 16.1 0.00 0.00 0.00 81 1017.2
20260903073221 15 168 4.8 9.7 0.00 0.00 0.00 82 1017.3
20260903072003 15 160 4.8 12.9 0.00 0.00 0.00 84 1017.2
20260903071003 14 151 3.2 11.3 0.00 0.00 0.00 87 1017.2
20260903070004 13 181 3.2 12.9 0.00 0.00 0.00 87 1017.7
20260903065006 13 184 3.2 12.9 0.00 0.00 0.00 87 1017.6
20260903064007 13 156 3.2 11.3 0.00 0.00 0.00 87 1017.5
20260903063003 13 137 3.2 11.3 0.00 0.00 0.00 89 1017.9
20260903062003 12 157 4.8 12.9 0.00 0.00 0.00 90 1018.1
20260903061006 12 157 3.2 12.9 0.00 0.00 0.00 90 1018.2
20260903060006 12 169 3.2 9.7 0.00 0.00 0.00 91 1018.2
20260903055006 12 163 1.6 6.4 0.00 0.00 0.00 91 1018.2
20260903054220 12 162 3.2 9.7 0.00 0.00 0.00 91 1018.3
20260903053003 11 193 3.2 11.3 0.00 0.00 0.00 92 1018.2
20260903052003 11 203 1.6 9.7 0.00 0.00 0.00 91 1018.0
20260903051003 11 212 3.2 6.4 0.00 0.00 0.00 91 1017.9
20260903050222 11 212 1.6 6.4 0.00 0.00 0.00 91 1017.9
20260903045003 11 233 0.0 4.8 0.00 0.00 0.00 90 1017.8
20260903044003 11 186 0.0 3.2 0.00 0.00 0.00 91 1017.9
20260903043003 11 177 1.6 6.4 0.00 0.00 0.00 91 1017.9
20260903042221 11 189 3.2 9.7 0.00 0.00 0.00 90 1017.9
20260903041006 11 198 1.6 8.0 0.00 0.00 0.00 90 1017.9
20260903040008 11 215 3.2 4.8 0.00 0.00 0.00 90 1017.8
20260903035008 11 229 1.6 4.8 0.00 0.00 0.00 89 1017.9
20260903034006 11 203 1.6 4.8 0.00 0.00 0.00 89 1017.8
20260903033006 11 212 3.2 8.0 0.00 0.00 0.00 89 1018.1
20260903032006 12 226 3.2 6.4 0.00 0.00 0.00 89 1018.0
20260903031003 12 215 1.6 6.4 0.00 0.00 0.00 89 1018.1
20260903030221 12 206 3.2 6.4 0.00 0.00 0.00 89 1018.2
20260903025006 12 192 3.2 8.0 0.00 0.00 0.00 89 1018.1
20260903024006 12 194 4.8 9.7 0.00 0.00 0.00 89 1018.1
20260903023006 12 194 1.6 8.0 0.00 0.00 0.00 90 1018.1
20260903022006 12 221 1.6 4.8 0.00 0.00 0.00 90 1018.2
20260903021006 12 211 0.0 4.8 0.00 0.00 0.00 90 1018.2
20260903020007 12 227 1.6 3.2 0.00 0.00 0.00 89 1018.1
20260903015003 12 0 0.0 3.2 0.00 0.00 0.00 89 1018.2
20260903014003 12 0 0.0 0.0 0.00 0.00 0.00 89 1018.2
20260903013006 12 0 0.0 0.0 0.00 0.00 0.00 89 1018.2
20260903012003 12 0 0.0 0.0 0.00 0.00 0.00 89 1018.3
20260903011006 12 0 0.0 0.0 0.00 0.00 0.00 88 1018.4
20260903010220 12 0 0.0 0.0 0.00 0.00 0.00 88 1018.4
20260903005006 12 0 0.0 0.0 0.00 0.00 0.00 87 1018.3
20260903004006 12 0 0.0 0.0 0.00 0.00 0.00 87 1018.3
20260903003003 12 0 0.0 0.0 0.00 0.03 0.00 87 1018.3
20260903002006 12 0 0.0 3.2 0.00 0.03 0.00 87 1018.3
20260903001220 12 0 0.0 3.2 0.00 0.03 0.00 86 1018.3
20260903000222 12 0 0.0 0.0 0.00 0.03 0.00 86 1018.3
20260902235003 12 0 0.0 0.0 0.00 0.03 0.00 86 1018.4
20260902234006 13 0 0.0 1.6 0.00 0.03 0.00 85 1018.3
20260902233006 13 0 0.0 3.2 0.00 0.03 0.00 85 1018.3
20260902232006 13 0 0.0 0.0 0.00 0.03 0.00 85 1018.3
20260902231006 13 0 0.0 0.0 0.00 0.03 0.00 85 1018.3
20260902230006 13 201 1.6 4.8 0.00 0.03 0.00 85 1018.3
20260902225003 13 0 0.0 6.4 0.00 0.03 0.00 85 1018.3
20260902224003 13 0 0.0 0.0 0.00 0.03 0.00 84 1018.3
20260902223003 13 0 0.0 0.0 0.00 0.03 0.00 84 1018.3
20260902222004 13 0 0.0 0.0 0.00 0.03 0.00 83 1018.4
20260902221006 13 0 0.0 0.0 0.00 0.03 0.00 83 1018.3
20260902220007 13 0 0.0 0.0 0.00 0.03 0.00 82 1018.2
20260902215006 13 0 0.0 0.0 0.00 0.03 0.03 82 1018.1
20260902214003 14 0 0.0 0.0 0.00 0.03 0.03 81 1018.1
20260902213006 14 0 0.0 0.0 0.00 0.03 0.03 80 1018.0
20260902212221 14 0 0.0 0.0 0.00 0.03 0.03 80 1017.9
20260902211006 14 0 0.0 0.0 0.00 0.03 0.03 79 1017.9
20260902210007 15 0 0.0 0.0 0.00 0.03 0.03 78 1017.8
20260902205220 15 0 0.0 0.0 0.00 0.03 0.03 78 1017.8
20260902204003 15 0 0.0 0.0 0.00 0.03 0.03 77 1017.8
20260902203003 15 0 0.0 0.0 0.00 0.03 0.03 75 1017.7
20260902202218 16 0 0.0 0.0 0.00 0.03 0.03 73 1017.7
20260902201003 16 0 0.0 0.0 0.00 0.03 0.03 72 1017.7
20260902200007 16 280 4.8 6.4 0.00 0.03 0.03 72 1017.7
20260902195007 16 282 4.8 11.3 0.00 0.03 0.03 70 1017.6
20260902194003 16 282 4.8 9.7 0.00 0.03 0.03 70 1017.6
20260902193006 17 283 3.2 11.3 0.00 0.03 0.03 69 1017.6
20260902192004 17 288 4.8 12.9 0.00 0.05 0.03 68 1017.5
20260902191006 17 276 4.8 12.9 0.00 0.05 0.03 67 1017.5